Voltar ao catálogo

STARLINK-4644

AtivoComunicaçõesVLEO
NORAD 53719·PAYLOAD·🇺🇸 United States

Lançado Sep 5, 2022 de Cape Canaveral Space Force Station

Loading…

Próximas Passagens (próximas 24 horas)

TLE

AtualizadoSource: CelesTrak SupGP

Época: Sep 14, 2026, 22:10 UTC

1 53719C 22107V   26257.92409722  .00038771  00000+0  11456-2 0  2575
2 53719  53.1577  87.8763 0001244  82.9213 118.9793 15.34367758    18

Acompanhe STARLINK-4644 em tempo real com AllMySat

Download on the App Store